Hourly Weather Gogolino

Today, 13 May, Thursday

Time Temperature Precipitation Wind Pressure Humidity
00:00 +13°C° 0 mm 3 mps 750 mmHg 92%
01:00 +13°C° 0 mm 3 mps 750 mmHg 92%
02:00 +13°C° 0 mm 4 mps 750 mmHg 92%
03:00 +13°C° 0 mm 3 mps 750 mmHg 92%
04:00 +12°C° 0 mm 3 mps 750 mmHg 92%
05:00 +12°C° 0 mm 3 mps 750 mmHg 92%
06:00 +13°C° 0 mm 3 mps 750 mmHg 83%
07:00 +14°C° 0 mm 3 mps 750 mmHg 75%
08:00 +14°C° 0 mm 3 mps 750 mmHg 66%
09:00 +17°C° 0 mm 3 mps 749 mmHg 59%
10:00 +18°C° 0 mm 3 mps 749 mmHg 52%
11:00 +19°C° 0 mm 3 mps 749 mmHg 44%
12:00 +20°C° 0 mm 4 mps 748 mmHg 43%
13:00 +20°C° 0 mm 4 mps 748 mmHg 42%
14:00 +21°C° 0 mm 4 mps 747 mmHg 40%
15:00 +20°C° 0 mm 3 mps 747 mmHg 48%
16:00 +19°C° 0 mm 2 mps 746 mmHg 55%
17:00 +18°C° 0 mm 2 mps 745 mmHg 62%
18:00 +16°C° 0.3 mm 3 mps 745 mmHg 70%
19:00 +14°C° 0.3 mm 3 mps 745 mmHg 78%
20:00 +12°C° 0.3 mm 4 mps 745 mmHg 86%
21:00 +11°C° 0.4 mm 3 mps 745 mmHg 89%
22:00 +10°C° 0.4 mm 2 mps 745 mmHg 92%
23:00 +9°C° 0.4 mm 2 mps 745 mmHg 95%

Tomorrow, 14 May, Friday

Time Temperature Precipitation Wind Pressure Humidity
00:00 +8°C° 0 mm 2 mps 745 mmHg 96%
01:00 +8°C° 0 mm 2 mps 745 mmHg 97%
02:00 +7°C° 0 mm 2 mps 745 mmHg 97%
03:00 +7°C° 0 mm 2 mps 746 mmHg 97%
04:00 +7°C° 0 mm 2 mps 746 mmHg 96%
05:00 +8°C° 0 mm 2 mps 746 mmHg 96%
06:00 +9°C° 0 mm 3 mps 746 mmHg 88%
07:00 +11°C° 0 mm 3 mps 746 mmHg 80%
08:00 +12°C° 0 mm 3 mps 746 mmHg 73%
09:00 +14°C° 0 mm 3 mps 746 mmHg 65%
10:00 +15°C° 0 mm 4 mps 746 mmHg 57%
11:00 +17°C° 0 mm 4 mps 746 mmHg 50%
12:00 +18°C° 0 mm 4 mps 746 mmHg 49%
13:00 +18°C° 0 mm 4 mps 746 mmHg 49%
14:00 +19°C° 0 mm 4 mps 746 mmHg 49%
15:00 +19°C° 0 mm 3 mps 745 mmHg 53%
16:00 +18°C° 0 mm 3 mps 745 mmHg 57%
17:00 +18°C° 0 mm 2 mps 745 mmHg 62%
18:00 +16°C° 0 mm 2 mps 744 mmHg 70%
19:00 +15°C° 0 mm 2 mps 744 mmHg 78%
20:00 +14°C° 0 mm 2 mps 744 mmHg 86%
21:00 +13°C° 0.2 mm 2 mps 743 mmHg 89%
22:00 +13°C° 0.2 mm 2 mps 743 mmHg 92%
23:00 +13°C° 0.2 mm 2 mps 743 mmHg 96%

Day after tomorrow, 15 May, Saturday

Time Temperature Precipitation Wind Pressure Humidity
00:00 +12°C° 0.1 mm 2 mps 742 mmHg 96%
01:00 +12°C° 0.1 mm 2 mps 742 mmHg 97%
02:00 +12°C° 0.1 mm 2 mps 742 mmHg 98%
03:00 +12°C° 0 mm 2 mps 742 mmHg 98%
04:00 +13°C° 0 mm 2 mps 742 mmHg 97%
05:00 +13°C° 0 mm 2 mps 742 mmHg 97%
06:00 +15°C° 0 mm 2 mps 742 mmHg 90%
07:00 +17°C° 0 mm 2 mps 742 mmHg 83%
08:00 +18°C° 0 mm 2 mps 742 mmHg 76%
09:00 +20°C° 0 mm 2 mps 742 mmHg 68%
10:00 +21°C° 0 mm 2 mps 741 mmHg 60%
11:00 +24°C° 0 mm 2 mps 741 mmHg 51%
12:00 +24°C° 0.2 mm 2 mps 741 mmHg 52%
13:00 +24°C° 0.2 mm 2 mps 741 mmHg 52%
14:00 +24°C° 0.2 mm 2 mps 740 mmHg 53%
15:00 +21°C° 1.2 mm 2 mps 740 mmHg 63%
16:00 +20°C° 1.2 mm 2 mps 740 mmHg 73%
17:00 +18°C° 1.2 mm 2 mps 740 mmHg 82%
18:00 +17°C° 0.5 mm 2 mps 740 mmHg 86%
19:00 +16°C° 0.5 mm 2 mps 740 mmHg 89%
20:00 +15°C° 0.5 mm 1 mps 740 mmHg 92%
21:00 +15°C° 0 mm 1 mps 739 mmHg 93%
22:00 +14°C° 0 mm 1 mps 739 mmHg 94%
23:00 +14°C° 0 mm 1 mps 739 mmHg 94%

16 May, Sunday

Time Temperature Precipitation Wind Pressure Humidity
00:00 +14°C° 0.1 mm 1 mps 739 mmHg 95%
01:00 +13°C° 0.1 mm 2 mps 739 mmHg 96%
02:00 +13°C° 0.1 mm 2 mps 739 mmHg 97%
03:00 +13°C° 0.2 mm 2 mps 740 mmHg 97%
04:00 +13°C° 0.2 mm 2 mps 740 mmHg 97%
05:00 +13°C° 0.2 mm 2 mps 740 mmHg 97%
06:00 +14°C° 0.2 mm 2 mps 740 mmHg 95%
07:00 +15°C° 0.2 mm 2 mps 741 mmHg 93%
08:00 +15°C° 0.2 mm 2 mps 741 mmHg 90%
09:00 +16°C° 0.1 mm 3 mps 741 mmHg 88%
10:00 +16°C° 0.1 mm 3 mps 742 mmHg 86%
11:00 +17°C° 0.1 mm 3 mps 742 mmHg 84%
12:00 +17°C° 0.8 mm 3 mps 742 mmHg 82%
13:00 +18°C° 0.8 mm 3 mps 743 mmHg 80%
14:00 +18°C° 0.8 mm 4 mps 743 mmHg 78%
15:00 +18°C° 1 mm 3 mps 743 mmHg 80%
16:00 +18°C° 1 mm 3 mps 743 mmHg 82%
17:00 +17°C° 1 mm 3 mps 743 mmHg 84%
18:00 +16°C° 0.4 mm 2 mps 743 mmHg 88%
19:00 +15°C° 0.4 mm 2 mps 744 mmHg 92%
20:00 +14°C° 0.4 mm 2 mps 744 mmHg 95%
21:00 +13°C° 0 mm 2 mps 745 mmHg 96%
22:00 +13°C° 0 mm 2 mps 745 mmHg 97%
23:00 +12°C° 0 mm 2 mps 745 mmHg 98%

17 May, Monday

Time Temperature Precipitation Wind Pressure Humidity
00:00 +12°C° 0 mm 2 mps 745 mmHg 97%
01:00 +12°C° 0 mm 1 mps 746 mmHg 97%
02:00 +12°C° 0 mm 1 mps 746 mmHg 97%
03:00 +13°C° 0 mm 1 mps 746 mmHg 96%
04:00 +13°C° 0 mm 1 mps 747 mmHg 96%
05:00 +13°C° 0 mm 1 mps 747 mmHg 95%
06:00 +14°C° 0 mm 1 mps 747 mmHg 91%
07:00 +14°C° 0 mm 0 mps 747 mmHg 86%
08:00 +15°C° 0 mm 0 mps 748 mmHg 82%
09:00 +16°C° 0 mm 0 mps 748 mmHg 78%
10:00 +18°C° 0 mm 1 mps 748 mmHg 73%
11:00 +19°C° 0 mm 1 mps 748 mmHg 69%
12:00 +20°C° 0 mm 1 mps 748 mmHg 66%
13:00 +20°C° 0 mm 1 mps 748 mmHg 63%
14:00 +20°C° 0 mm 2 mps 748 mmHg 61%
15:00 +20°C° 0 mm 2 mps 748 mmHg 61%
16:00 +20°C° 0 mm 2 mps 747 mmHg 62%
17:00 +20°C° 0 mm 2 mps 747 mmHg 63%
18:00 +19°C° 0 mm 2 mps 747 mmHg 71%
19:00 +17°C° 0 mm 2 mps 747 mmHg 79%
20:00 +16°C° 0 mm 3 mps 747 mmHg 88%
21:00 +14°C° 0 mm 3 mps 747 mmHg 90%
22:00 +14°C° 0 mm 3 mps 747 mmHg 92%
23:00 +13°C° 0 mm 3 mps 747 mmHg 94%

18 May, Tuesday

Time Temperature Precipitation Wind Pressure Humidity
00:00 +13°C° 0 mm 3 mps 747 mmHg 93%
01:00 +13°C° 0 mm 3 mps 747 mmHg 93%
02:00 +13°C° 0 mm 3 mps 747 mmHg 92%
03:00 +13°C° 0 mm 3 mps 746 mmHg 90%
04:00 +14°C° 0 mm 3 mps 746 mmHg 88%
05:00 +14°C° 0 mm 3 mps 746 mmHg 86%
06:00 +17°C° 0 mm 4 mps 746 mmHg 80%
07:00 +19°C° 0 mm 4 mps 746 mmHg 74%
08:00 +21°C° 0 mm 5 mps 746 mmHg 69%
09:00 +22°C° 0 mm 5 mps 746 mmHg 63%
10:00 +25°C° 0 mm 5 mps 746 mmHg 57%
11:00 +26°C° 0 mm 5 mps 746 mmHg 52%
12:00 +27°C° 0 mm 5 mps 746 mmHg 49%
13:00 +28°C° 0 mm 5 mps 746 mmHg 47%
14:00 +29°C° 0 mm 4 mps 746 mmHg 45%
15:00 +28°C° 0 mm 4 mps 746 mmHg 47%
16:00 +27°C° 0 mm 4 mps 746 mmHg 49%
17:00 +26°C° 0 mm 4 mps 745 mmHg 51%
18:00 +23°C° 0 mm 4 mps 745 mmHg 59%
19:00 +22°C° 0 mm 4 mps 745 mmHg 67%
20:00 +20°C° 0 mm 4 mps 745 mmHg 75%
21:00 +20°C° 0 mm 4 mps 745 mmHg 78%
22:00 +19°C° 0 mm 4 mps 746 mmHg 81%
23:00 +18°C° 0 mm 3 mps 746 mmHg 83%
Show more